Weather History for RJCM - August, 2013

Change the Weather History Date:

Friday, August 30, 2013

  Actual Average Record
Temperature  
Mean Temperature 61 °F -  
Max Temperature 62 °F 67 °F 91 °F (2012)
Min Temperature 59 °F 55 °F 57 °F (2002)
Degree Days  
Heating Degree Days 4    
Growing Degree Days 11 (Base 50)    
Moisture  
Dew Point 59 °F    
Average Humidity 93    
Maximum Humidity 94    
Minimum Humidity 88    
Precipitation  
Precipitation 0.00 in - - ()
Sea Level Pressure  
Sea Level Pressure 29.53 in    
Wind  
Wind Speed 3 mph ()    
Max Wind Speed 14 mph    
Max Gust Speed -    
Visibility 4.6 miles    
Events Rain    
Averages and records for this station are not official NWS values.
T = Trace of Precipitation, MM = Missing Value Source: Averaged Metar Reports

Daily Weather History Graph

Daily Weather History Graph

Search for Another Location

Airport or City:

Trip Planner

Search our weather history database for the weather conditions in past years. The results will help you decide how hot, cold, wet, or windy it might be!

Date:

Astronomy

Aug. 30, 2013 Rise Set
Actual Time 4:44 AM JST 6:03 PM JST
Civil Twilight 4:14 AM JST 6:33 PM JST
Nautical Twilight 3:38 AM JST 7:08 PM JST
Astronomical Twilight 3:00 AM JST 7:46 PM JST
Moon 11:35 PM JST (8/30) 1:55 PM JST (8/30)
Length of Visible Light 14h 18m
Length of Day
13h 19m
Waning Crescent, 34% of the Moon is Illuminated
Aug 30
Waning Crescent
Sep 5
New
Sep 13
First Quarter
Sep 19
Full
Sep 27
Last Quarter

Hourly Weather History & Observations

Time (JST) Temp. Dew Point Humidity Pressure Visibility Wind Dir Wind Speed Gust Speed Precip Events Conditions
8:00 AM 60.8 °F 57.2 °F 88% 29.53 in 3.7 mi Calm Calm - N/A Rain Light Rain
9:00 AM 60.8 °F 59.0 °F 94% 29.50 in - Variable 1.2 mph - N/A Rain Light Rain
9:17 AM 60.8 °F 59.0 °F 94% 29.50 in 3.1 mi Variable 1.2 mph - N/A Rain Light Rain
9:47 AM 60.8 °F 59.0 °F 94% 29.50 in - Variable 2.3 mph - N/A Rain Light Rain
10:00 AM 60.8 °F 59.0 °F 94% 29.50 in - Variable 2.3 mph - N/A Rain Light Rain
10:12 AM 60.8 °F 59.0 °F 94% 29.50 in 3.1 mi Variable 2.3 mph - N/A Rain Rain
10:27 AM 60.8 °F 59.0 °F 94% 29.50 in 3.7 mi WSW 3.5 mph - N/A Rain Light Rain
11:00 AM 60.8 °F 59.0 °F 94% 29.50 in 6.2 mi Variable 2.3 mph - N/A Rain Light Rain
12:00 PM 60.8 °F 59.0 °F 94% 29.47 in 6.2 mi NNE 2.3 mph - N/A Rain Light Rain
1:00 PM 60.8 °F 59.0 °F 94% 29.47 in 6.2 mi NNW 4.6 mph - N/A   Mostly Cloudy
2:00 PM 60.8 °F 59.0 °F 94% 29.47 in - North 8.1 mph - N/A Rain Light Rain Showers
3:00 PM 62.6 °F 60.8 °F 94% 29.50 in 3.1 mi NNW 8.1 mph - N/A Rain Light Rain Showers
4:00 PM 62.6 °F 60.8 °F 94% 29.50 in 6.2 mi North 6.9 mph - N/A Rain Light Rain Showers
5:00 PM 62.6 °F 59.0 °F 88% 29.53 in 3.1 mi NNE 6.9 mph - N/A Rain Light Rain Showers
6:00 PM 62.6 °F 60.8 °F 94% 29.56 in 4.3 mi NNW 5.8 mph - N/A   Light Drizzle
6:15 PM 62.6 °F 60.8 °F 94% 29.56 in 4.3 mi North 5.8 mph - N/A   Light Drizzle
7:00 PM 60.8 °F 59.0 °F 94% 29.62 in 4.3 mi North 11.5 mph - N/A   Light Drizzle
8:00 PM 60.8 °F 57.2 °F 88% 29.65 in 5.0 mi NNE 13.8 mph - N/A   Light Drizzle
8:40 PM 59.0 °F 57.2 °F 94% 29.65 in 6.2 mi NNE 11.5 mph - N/A   Light Drizzle